This is the latest recevied weather packets stored in our database for station/object N9BSW. If no packets are shown the sender has not sent any weather packets the latest 10 day(s).
| Time | Temp. | Humidity | Pressure | Rain* | Wind** | Luminosity | Snow |
|---|---|---|---|---|---|---|---|
| 1777699817 | 5° C | 83% | 1018.2 hPa | 0 mm | - | 0 W/m² | - |
| 1777699515 | 5° C | 81% | 1018.3 hPa | 0 mm | - | 0 W/m² | - |
| 1777699213 | 5° C | 79% | 1018.1 hPa | 0 mm | - | 0 W/m² | - |
| 1777698910 | 5° C | 78% | 1018 hPa | 0 mm | - | 0 W/m² | - |
| 1777698608 | 5° C | 79% | 1018.3 hPa | 0 mm | - | 0 W/m² | - |
| 1777698303 | 5° C | 80% | 1018.2 hPa | 0 mm | - | 0 W/m² | - |
| 1777698001 | 5° C | 83% | 1018.2 hPa | 0 mm | - | 0 W/m² | - |
| 1777697697 | 4.44° C | 87% | 1018.1 hPa | 0 mm | - | 0 W/m² | - |
| 1777697395 | 4.44° C | 89% | 1018 hPa | 0 mm | - | 0 W/m² | - |
| 1777697090 | 4.44° C | 90% | 1018.1 hPa | 0 mm | - | 0 W/m² | - |
| 1777696787 | 4.44° C | 90% | 1017.9 hPa | 0 mm | - | 0 W/m² | - |
| 1777696485 | 4.44° C | 89% | 1018.1 hPa | 0 mm | - | 0 W/m² | - |
| 1777696184 | 4.44° C | 89% | 1018.1 hPa | 0 mm | - | 0 W/m² | - |
| 1777695882 | 5° C | 89% | 1018.3 hPa | 0 mm | - | 0 W/m² | - |
| 1777695579 | 5° C | 89% | 1018.5 hPa | 0 mm | - | 0 W/m² | - |
| 1777695277 | 5° C | 89% | 1018.1 hPa | 0 mm | - | 0 W/m² | - |
| 1777694973 | 5° C | 89% | 1018.2 hPa | 0 mm | - | 0 W/m² | - |
| 1777694670 | 5° C | 90% | 1018.1 hPa | 0 mm | - | 0 W/m² | - |
| 1777694366 | 5° C | 90% | 1018.2 hPa | 0 mm | - | 0 W/m² | - |
| 1777694063 | 5° C | 90% | 1018.1 hPa | 0 mm | - | 0 W/m² | - |
| 1777693761 | 5° C | 89% | 1018.2 hPa | 0 mm | - | 0 W/m² | - |
| 1777693459 | 5° C | 89% | 1018.1 hPa | 0 mm | - | 0 W/m² | - |
| 1777693157 | 5° C | 89% | 1018.1 hPa | 0 mm | - | 0 W/m² | - |
| 1777692854 | 5° C | 88% | 1018.1 hPa | 0 mm | - | 0 W/m² | - |
| 1777692551 | 5° C | 88% | 1018.1 hPa | 0 mm | - | 0 W/m² | - |
* Rain latest hour (hover to see other rain measurements)
** Current wind speed in m/s (hover to see current wind gust speed)